Time,TemperatureF,DewpointF,PressureIn,WindDirection,WindDirectionDegrees,WindSpeedMPH,WindSpeedGustMPH,Humidity,HourlyPrecipIn,Conditions,Clouds,dailyrainin,SoftwareType,DateUTC
2013-03-24 01:00:00,14.0,13.0,-100.00,SSE,152,8.0,12.0,94,-99.99,,,-99.99,,2013-03-24 08:00:00,
2013-03-24 02:00:00,15.0,13.0,-100.00,SE,145,5.0,9.0,93,-99.99,,,-99.99,,2013-03-24 09:00:00,
2013-03-24 03:00:00,15.0,13.0,-100.00,South,182,3.0,8.0,93,-99.99,,,-99.99,,2013-03-24 10:00:00,
2013-03-24 04:00:00,14.0,12.0,-100.00,WSW,239,3.0,8.0,93,-99.99,,,-99.99,,2013-03-24 11:00:00,
2013-03-24 05:00:00,15.0,14.0,-100.00,SE,140,6.0,14.0,94,-99.99,,,-99.99,,2013-03-24 12:00:00,
2013-03-24 06:00:00,16.0,15.0,-100.00,SSE,155,15.0,27.0,94,-99.99,,,-99.99,,2013-03-24 13:00:00,
2013-03-24 07:00:00,16.0,15.0,-100.00,ESE,119,20.0,28.0,95,-99.99,,,-99.99,,2013-03-24 14:00:00,
2013-03-24 08:00:00,19.0,18.0,-100.00,SE,132,21.0,30.0,95,-99.99,,,-99.99,,2013-03-24 15:00:00,
2013-03-24 09:00:00,19.0,18.0,-100.00,SE,128,20.0,30.0,96,-99.99,,,-99.99,,2013-03-24 16:00:00,
2013-03-24 10:00:00,21.0,20.0,-100.00,ESE,112,20.0,30.0,96,-99.99,,,-99.99,,2013-03-24 17:00:00,
2013-03-24 11:00:00,25.0,24.0,-100.00,ESE,107,15.0,23.0,97,-99.99,,,-99.99,,2013-03-24 18:00:00,
2013-03-24 12:00:00,28.0,28.0,-100.00,ESE,104,17.0,23.0,98,-99.99,,,-99.99,,2013-03-24 19:00:00,
2013-03-24 13:00:00,28.0,28.0,-100.00,East,98,20.0,25.0,98,-99.99,,,-99.99,,2013-03-24 20:00:00,
2013-03-24 14:00:00,30.0,30.0,-100.00,ESE,108,18.0,25.0,99,-99.99,,,-99.99,,2013-03-24 21:00:00,
2013-03-24 15:00:00,30.0,30.0,-100.00,ESE,104,15.0,23.0,99,-99.99,,,-99.99,,2013-03-24 22:00:00,
2013-03-24 16:00:00,31.0,31.0,-100.00,ESE,108,15.0,20.0,99,-99.99,,,-99.99,,2013-03-24 23:00:00,
2013-03-24 17:00:00,33.0,32.0,-100.00,ESE,110,16.0,23.0,98,-99.99,,,-99.99,,2013-03-25 00:00:00,
2013-03-24 18:00:00,34.0,33.0,-100.00,East,100,14.0,23.0,97,-99.99,,,-99.99,,2013-03-25 01:00:00,
2013-03-24 19:00:00,29.0,29.0,-100.00,ESE,107,17.0,23.0,100,-99.99,,,-99.99,,2013-03-25 02:00:00,
2013-03-24 20:00:00,21.0,20.0,-100.00,SE,140,16.0,20.0,96,-99.99,,,-99.99,,2013-03-25 03:00:00,
2013-03-24 21:00:00,19.0,18.0,-100.00,SE,139,18.0,21.0,96,-99.99,,,-99.99,,2013-03-25 04:00:00,
2013-03-24 22:00:00,19.0,18.0,-100.00,SE,138,17.0,22.0,96,-99.99,,,-99.99,,2013-03-25 05:00:00,
2013-03-24 23:00:00,19.0,18.0,-100.00,SE,140,13.0,17.0,95,-99.99,,,-99.99,,2013-03-25 06:00:00,